TimePST,TemperatureF,Dew PointF,Humidity,Sea Level PressureIn,VisibilityMPH,Wind Direction,Wind SpeedMPH,Gust SpeedMPH,PrecipitationIn,Events,Conditions,WindDirDegrees,DateUTC
12:51 AM,41.0,36.0,82,29.96,10.0,NNE,4.6,-,N/A,,Clear,30,2013-02-09 08:51:00
1:51 AM,41.0,36.0,82,29.96,10.0,NNE,6.9,-,N/A,,Clear,30,2013-02-09 09:51:00
2:51 AM,39.9,35.1,83,29.96,10.0,NE,6.9,-,N/A,,Clear,50,2013-02-09 10:51:00
3:51 AM,39.0,34.0,82,29.96,10.0,ENE,6.9,-,N/A,,Clear,60,2013-02-09 11:51:00
4:51 AM,39.0,33.1,79,29.96,10.0,NE,6.9,-,N/A,,Clear,50,2013-02-09 12:51:00
5:51 AM,37.9,33.1,83,29.97,10.0,NE,9.2,-,N/A,,Clear,50,2013-02-09 13:51:00
6:51 AM,37.0,32.0,82,29.99,10.0,Calm,Calm,-,N/A,,Clear,0,2013-02-09 14:51:00
7:51 AM,39.0,33.1,79,30.01,10.0,East,4.6,-,N/A,,Clear,80,2013-02-09 15:51:00
8:51 AM,45.0,34.0,65,30.03,10.0,NE,10.4,-,N/A,,Clear,40,2013-02-09 16:51:00
9:35 AM,48.2,35.6,62,30.04,10.0,NE,4.6,-,N/A,,Clear,50,2013-02-09 17:35:00
9:51 AM,51.1,36.0,56,30.04,10.0,ENE,4.6,-,N/A,,Clear,60,2013-02-09 17:51:00
10:51 AM,54.0,34.0,47,30.05,10.0,West,3.5,-,N/A,,Clear,280,2013-02-09 18:51:00
11:51 AM,55.0,33.1,43,30.04,10.0,WSW,6.9,-,N/A,,Clear,240,2013-02-09 19:51:00
12:51 PM,57.0,37.0,47,30.03,10.0,West,8.1,-,N/A,,Clear,280,2013-02-09 20:51:00
1:51 PM,59.0,36.0,42,30.02,10.0,WNW,16.1,-,N/A,,Clear,290,2013-02-09 21:51:00
2:51 PM,57.0,41.0,55,30.01,10.0,West,19.6,-,N/A,,Clear,280,2013-02-09 22:51:00
3:51 PM,55.9,39.0,53,30.01,10.0,WNW,13.8,23.0,N/A,,Clear,290,2013-02-09 23:51:00
4:51 PM,54.0,41.0,62,30.01,10.0,West,17.3,-,N/A,,Clear,280,2013-02-10 00:51:00
5:51 PM,52.0,42.1,69,30.02,10.0,West,11.5,-,N/A,,Clear,280,2013-02-10 01:51:00
6:51 PM,50.0,42.1,74,30.03,10.0,West,6.9,-,N/A,,Clear,280,2013-02-10 02:51:00
7:51 PM,48.9,42.1,77,30.05,10.0,West,4.6,-,N/A,,Clear,260,2013-02-10 03:51:00
8:51 PM,46.9,41.0,80,30.06,10.0,ENE,4.6,-,N/A,,Clear,60,2013-02-10 04:51:00
9:51 PM,44.1,37.9,79,30.08,10.0,ENE,4.6,-,N/A,,Clear,60,2013-02-10 05:51:00
10:51 PM,44.1,36.0,73,30.09,10.0,NE,4.6,-,N/A,,Clear,50,2013-02-10 06:51:00
11:51 PM,42.1,35.1,76,30.10,10.0,ENE,4.6,-,N/A,,Clear,60,2013-02-10 07:51:00